User: anonymous   Login
Location: Caltech
(34.1382°N, 118.1253°W)
Time: 17:19:21
(UTC-07:00)
Language:

Cosmos-2242 - Orbit

View from above orbital plane
View from above orbital plane
View from above satellite
View from above satellite

Ground track
Ground track

The orbit data is extracted from the following two-line orbital elements,

1 22626U 93024A   14298.04684417  .00003417  00000-0  38517-3 0  2427
2 22626 082.5246 231.9550 0021477 086.5196 273.8477 14.86175290162558
Epoch (UTC): 25 October 2014 01:07:27
Eccentricity: 0.0021477
inclination: 82.5246°
perigee height: 595 km
apogee height: 625 km
right ascension of ascending node: 231.9550°
argument of perigee: 86.5196°
revolutions per day: 14.86175290
mean anomaly at epoch: 273.8477°
orbit number at epoch: 16255

The dashed part of the orbit path shows where the satellite is in the earth's shadow,  

DLR